Regional Weather Roundup
Issued by NWS Cleveland, OH

Home | Current Version | Previous Version | Graphics & Text | Print | Product List | Glossary On
Versions: 1 2 3 4 5 6 7 8 9 10 11 12 13 14 15 16 17 18 19 20 21 22 23 24 25 26 27 28 29 30 31 32 33 34 35 36 37 38 39 40 41 42 43 44 45 46 47 48 49 50
000
ASUS41 KCLE 010200
RWRCLE
OHIO REGIONAL WEATHER ROUNDUP
NATIONAL WEATHER SERVICE WILMINGTON, OH
900 PM EST SAT FEB 28 2015

NOTE: "FAIR" INDICATES FEW OR NO CLOUDS BELOW 12,000 FEET WITH NO
SIGNIFICANT WEATHER AND/OR OBSTRUCTIONS TO VISIBILITY.

OHZ001>008-015>018-024>027-034-035-043-044-010300-
   NORTHWEST OHIO

CITY           SKY/WX    TMP DP  RH WIND       PRES   REMARKS
DEFIANCE       CLOUDY    18   4  54 E6        30.58S WCI  10
FINDLAY        CLOUDY    19   3  49 E7        30.54F WCI  10
TOLEDO EXPRESS CLOUDY    16   4  59 E6        30.58F WCI   7
TOLEDO EXEC    CLOUDY    15   4  61 E5        30.60F WCI   8
LIMA           CLOUDY    20   6  55 E6        30.53F WCI  12
$$

OHZ009>014-019>023-028>033-038-089-010300-
   NORTHEAST OHIO

CITY           SKY/WX    TMP DP  RH WIND       PRES   REMARKS
CLE-HOPKINS    MOCLDY    15   5  64 MISG      30.62F
CLE-LAKEFRONT  PTCLDY    11   5  77 CALM      30.60F
CUY CO. ARPT   PTCLDY    14   5  67 SE7       30.60F WCI   4
LORAIN-ELYRIA  MOCLDY    13   4  67 E3        30.59F
ASHTABULA      PTCLDY     8   0  69 CALM      30.61F
AKRON-CANTON   MOCLDY    20   1  43 E8        30.55F WCI  10
WOOSTER        NOT AVBL
MANSFIELD      MOCLDY    18   4  54 E8        30.52F WCI   8
YOUNGSTOWN     MOCLDY    18  -6  34 SE5       30.58F WCI  11
$$

OHZ042-051>053-060>062-070>072-077>081-010300-
  SOUTHWEST OHIO

CITY           SKY/WX    TMP DP  RH WIND       PRES   REMARKS
CINC-COVINGTON CLOUDY    27  13  55 E7        30.49F WCI  19
CINC-LUNKEN    CLOUDY    25  14  63 NE6       30.54F WCI  18
HAMILTON       CLOUDY    25  12  58 E7        30.54F WCI  17
DAYTON         NOT AVBL
WRIGHT-PAT AFB NOT AVBL
DAYTON GENERAL CLOUDY    22   9  57 E6        30.50F WCI  14
WILMINGTON     CLOUDY    22  10  60 E7        30.50F WCI  13
$$

OHZ036-037-039>041-045>050-054>059-063>069-073>076-082>088-010300-
  CENTRAL AND SOUTHEAST OHIO

CITY           SKY/WX    TMP DP  RH WIND       PRES   REMARKS
COLUMBUS       CLOUDY    24   5  44 E6        30.54F WCI  17
OSU AIRPORT    CLOUDY    23   6  48 E6        30.52F WCI  16
BOLTON FIELD   NOT AVBL
RICKENBACK AFB NOT AVBL
NEWARK         MOCLDY    25   5  42 NE3       30.54F
MARION         MOCLDY    18   6  59 E5        30.53F WCI  11
LANCASTER      CLOUDY    26  10  50 E7        30.53F WCI  18
ZANESVILLE     CLEAR     23   4  44 E3        30.54F
NEW PHILLY     MOCLDY    21   5  50 CALM      30.58F
$$



USA.gov is the U.S. government's official web portal to all federal, state and local government web resources and services.